sat.trackr.live / text

‹ back to catalog

BEIDOU-2 IGSO-2 (C07)

NORAD 37256 · 2010-068A

PAYLOAD ACTIVE UNKNOWN

§ Identity

Operator
Country
PRC
Launch date
2010-12-17
Launch site
XICLF
Launch vehicle
Mass (kg)
RCS (m²)
21.58

Purposes: comms, nav

External: N2YO · Heavens-Above · Gunter

§ Orbital elements

Epoch: 2026-05-21T17:26:36.818592Z

Period
1,435.81 min
Inclination
47.5987°
Eccentricity
0.0054473
Mean motion
1.00291558 rev/d
Perigee alt
35,551.4 km
Apogee alt
36,010.7 km
Semi-major
42,159.2 km
B*
0.0000e+0
RAAN
272.1591°
Arg perigee
211.8397°
Mean anomaly
123.6506°
Rev number
5,652

§ Raw data

BEIDOU-2 IGSO-2 (C07)1 37256U 10068A   26141.72681503 -.00000225  00000+0  00000+0 0  99922 37256  47.5987 272.1591 0054473 211.8397 123.6506  1.00291558 56528

JSON: /api/v1/satellites/37256 · /tle

For live sub-satellite position, see the globe view (requires WebGL).

§ Visibility from observer

Set your observer location to see the next 7 days of passes ≥ 10°. The values pass through the URL so the page stays shareable.

No JS? Fill the form by hand. The geolocation button needs JavaScript.